Location: Ravensburg
(47.7866°N, 9.6124°E)
Time: 01:16:06
(UTC+02:00)

AO-73 - Pass Details

Date: 20 March 2026
Orbit: 514 x 567 km, 97.8° (Epoch: 12 April)

Event Time Altitude Azimuth Distance (km) Brightness Sun altitude
Rises 04:31:01 0° 10° (N) 2,659 ? -19.5°
Reaches altitude 10° 04:33:09 10° 6° (N) 1,761 ? -19.1°
Maximum altitude 04:36:52 59° 287° (WNW) 604 ? -18.6°
Enters shadow 04:37:33 49° 242° (WSW) 675 ? -18.5°
